Location: *
(51.5000°N, 0.1100°W)
Time: 01:20:10
(UTC+00:00)

MSX - Pass Details

Date: 13 August 2024
Orbit: 895 x 904 km, 99.0° (Epoch: 09 September)

Event Time Altitude Azimuth Distance (km) Brightness Sun altitude
Rises 00:27:50 0° 26° (NNE) 3,544 8.1 -23.7°
Reaches altitude 10° 00:31:05 10° 44° (NE) 2,597 6.9 -23.7°
Maximum altitude 00:35:00 18° 87° (E) 2,048 5.8 -23.6°
Enters shadow 00:37:38 14° 119° (ESE) 2,305 5.8 -23.6°
